Weather History for Pocatello, ID

Change the Weather History Date:

Wednesday, March 20, 2013

  Actual Average Record
Temperature  
Mean Temperature 43 °F 39 °F  
Max Temperature 50 °F 51 °F 72 °F (1999)
Min Temperature 36 °F 28 °F 4 °F (1955)
Degree Days  
Heating Degree Days 22 26  
Month to date heating degree days 499 573  
Since 1 July heating degree days 5610 5846  
Cooling Degree Days 0 0  
Month to date cooling degree days 0 0  
Year to date cooling degree days 0 0  
Moisture  
Dew Point 31 °F    
Average Humidity 55    
Maximum Humidity 92    
Minimum Humidity 18    
Precipitation  
Precipitation 0.33 in 0.04 in 0.74 in (1946)
Month to date precipitation 0.68 0.83  
Year to date precipitation 1.76 2.79  
Snow  
Snow 0.00 in - - ()
Month to date snowfall 0.6  
Since 1 July snowfall 34.2  
Snow Depth 0.00 in    
Sea Level Pressure  
Sea Level Pressure 29.87 in    
Wind  
Wind Speed 12 mph (SSW)    
Max Wind Speed 31 mph    
Max Gust Speed 39 mph    
Visibility 9 miles    
Events Rain , Thunderstorm    
T = Trace of Precipitation, MM = Missing Value Source: NWS Daily Summary

Daily Weather History Graph

Daily Weather History Graph

Search for Another Location

Airport:

Trip Planner

Search our weather history database for the weather conditions in past years. The results will help you decide how hot, cold, wet, or windy it might be!

Date:

Astronomy

Mar. 20, 2013 Rise Set
Actual Time 7:32 AM MDT 7:42 PM MDT
Civil Twilight 7:04 AM MDT 8:11 PM MDT
Nautical Twilight 6:31 AM MDT 8:44 PM MDT
Astronomical Twilight 5:57 AM MDT 9:18 PM MDT
Moon 1:13 PM MDT (3/20) 3:23 AM MDT (3/20)
Length of Visible Light 13h 06m
Length of Day
12h 10m
First Quarter, 60% of the Moon is Illuminated
Mar 20
First Quarter
Mar 27
Full
Apr 2
Last Quarter
Apr 10
New
Apr 18
First Quarter

Hourly Weather History & Observations

Time (MDT) Temp. Windchill Dew Point Humidity Pressure Visibility Wind Dir Wind Speed Gust Speed Precip Events Conditions
12:53 AM 43.0 °F - 3.9 °F 20% 30.05 in 10.0 mi Calm Calm - N/A   Overcast
1:53 AM 42.1 °F 35.7 °F 6.1 °F 23% 30.02 in 10.0 mi NE 11.5 mph - N/A   Overcast
2:53 AM 45.0 °F 43.5 °F 3.9 °F 18% 29.99 in 10.0 mi Variable 3.5 mph - N/A   Overcast
3:53 AM 45.0 °F 43.5 °F 6.1 °F 20% 29.95 in 10.0 mi Variable 3.5 mph - N/A   Mostly Cloudy
4:53 AM 37.9 °F 34.4 °F 21.0 °F 51% 29.96 in 10.0 mi Variable 4.6 mph 17.3 mph N/A   Overcast
5:53 AM 46.9 °F - 12.9 °F 25% 29.93 in 10.0 mi SSW 17.3 mph - N/A   Overcast
6:06 AM 46.4 °F 39.8 °F 12.2 °F 25% 29.97 in 10.0 mi SSW 16.1 mph - N/A   Overcast
6:53 AM 42.1 °F 33.6 °F 30.9 °F 65% 29.98 in 10.0 mi SSW 18.4 mph 24.2 mph 0.00 in Rain Light Rain
7:08 AM 41.0 °F 34.3 °F 32.0 °F 70% 30.00 in 10.0 mi SSW 11.5 mph 20.7 mph 0.00 in Rain Light Rain
7:53 AM 37.0 °F 28.9 °F 33.1 °F 86% 30.01 in 4.0 mi South 12.7 mph - 0.04 in Rain Light Rain
8:53 AM 36.0 °F - 34.0 °F 93% 29.99 in 4.0 mi Calm Calm - 0.05 in Rain Light Rain
9:53 AM 37.9 °F 30.0 °F 35.1 °F 89% 29.99 in 8.0 mi SSW 12.7 mph - 0.03 in Rain Light Rain
10:53 AM 39.9 °F 34.5 °F 37.0 °F 89% 29.97 in 8.0 mi SW 8.1 mph - 0.03 in Rain Light Rain
11:53 AM 44.1 °F 37.4 °F 37.9 °F 79% 29.93 in 10.0 mi South 13.8 mph - 0.00 in   Overcast
12:53 PM 46.9 °F - 39.0 °F 74% 29.90 in 10.0 mi South 13.8 mph - N/A   Overcast
1:53 PM 48.0 °F - 37.0 °F 66% 29.88 in 10.0 mi South 18.4 mph - N/A   Overcast
2:53 PM 48.9 °F - 37.0 °F 64% 29.85 in 10.0 mi SSW 15.0 mph - 0.00 in   Overcast
3:53 PM 46.0 °F 41.0 °F 39.9 °F 79% 29.85 in 8.0 mi SSW 10.4 mph - 0.01 in Rain Rain
4:53 PM 46.9 °F - 41.0 °F 80% 29.83 in 10.0 mi South 13.8 mph - 0.01 in Rain Light Rain
5:53 PM 48.0 °F - 39.0 °F 71% 29.78 in 10.0 mi South 13.8 mph - 0.00 in   Mostly Cloudy
6:53 PM 45.0 °F 37.4 °F 39.0 °F 80% 29.80 in 5.0 mi SSW 18.4 mph 27.6 mph 0.06 in Rain Light Rain
7:53 PM 42.1 °F 38.4 °F 36.0 °F 79% 29.76 in 10.0 mi SE 5.8 mph - 0.04 in   Mostly Cloudy
8:53 PM 43.0 °F 36.8 °F 36.0 °F 76% 29.72 in 10.0 mi South 11.5 mph - N/A   Clear
9:53 PM 46.0 °F 37.6 °F 37.0 °F 71% 29.67 in 10.0 mi South 24.2 mph 28.8 mph N/A   Partly Cloudy
10:27 PM 41.0 °F 32.2 °F 37.4 °F 87% 29.76 in 3.0 mi West 18.4 mph 39.1 mph 0.02 in Rain , Thunderstorm Heavy Thunderstorms and Rain
10:30 PM 39.2 °F 31.2 °F 37.4 °F 93% 29.76 in 2.5 mi West 13.8 mph 39.1 mph 0.04 in Rain , Thunderstorm Heavy Thunderstorms and Rain
10:41 PM 39.2 °F 37.0 °F 37.4 °F 93% 29.74 in 9.0 mi WSW 3.5 mph - 0.06 in Rain , Thunderstorm Light Thunderstorms and Rain
10:48 PM 39.2 °F - 37.4 °F 93% 29.74 in 10.0 mi Calm Calm - 0.06 in   Overcast
10:53 PM 39.0 °F 34.0 °F 36.0 °F 89% 29.75 in 10.0 mi SSE 6.9 mph - 0.06 in   Overcast
11:53 PM 42.8 °F 36.2 °F 37.4 °F 81% 29.74 in 10.0 mi SSW 12.7 mph - N/A   Overcast